RADUGA-1M 3

Last updated on Sun Nov 16 2025 00:03:42 GMT+0000 (Coordinated Universal Time)

1 39375U 13062A 25319.45894190 .00000163 00000+0 00000+0 0 9997 2 39375 5.4214 74.9712 0002339 325.3074 214.7579 1.00271578 43964
UTC large
Height (km)
Speed (km/s)
/
Latitude / Longitude
Inclination (degrees)
Orbital Period (minutes)
Azimuth
Elevation
Range (km)
Doppler Factor

Next 0 passes for location: London (51.5072 / 0.1276)

Sorry there are no passes over London.